Regional Weather Roundup
Issued by NWS Burlington, VT

Current Version | Previous Version | Text Only | Print | Product List | Glossary Off
Versions: 1 2 3 4 5 6 7 8 9 10 11 12 13 14 15 16 17 18 19 20 21 22 23 24 25 26 27 28 29 30 31 32 33 34 35 36 37 38 39 40 41 42 43 44 45 46 47 48 49 50

000
ASUS41 KBTV 211030
RWRBTV
VERMONT REGIONAL WEATHER ROUNDUP
NATIONAL WEATHER SERVICE BURLINGTON VT
500 AM EST SUN DEC 21 2014

NOTE: "FAIR" INDICATES FEW OR NO CLOUDS BELOW 12,000 FEET WITH NO
SIGNIFICANT WEATHER AND/OR OBSTRUCTIONS TO VISIBILITY.

* THESE REPORTS ARE NOT UNDER NWS QUALITY CONTROL AND/OR DO NOT
  REPORT WEATHER SUCH AS PRECIPITATION AND FOG.

VTZ001>019-211100-
_____VERMONT_____


CITY           SKY/WX    TMP DP  RH WIND       PRES   REMARKS
BURLINGTON     CLOUDY    17  13  84 E3        30.33S
MONTPELIER     CLOUDY    14  11  87 CALM      30.30S
MORRISVILLE    CLOUDY     7   3  84 CALM      30.32S
ST. JOHNSBURY*   N/A     13  10  88 MISG      30.30R
LYNDONVILLE*   FAIR      11   7  85 CALM      30.28R
MIDDLEBURY*    FLURRIES  19  19 100 CALM      30.30S
RUTLAND*       CLOUDY    23  19  86 W3        30.27S
SPRINGFIELD    CLOUDY    25  21  85 CALM      30.29S
HIGHGATE*      CLOUDY    15  14  92 CALM      30.35R FOG
NEWPORT*       PTSUNNY    1  -2  86 CALM      30.30S
BENNINGTON     CLOUDY    25  21  85 CALM      30.26S
MT. MANSFIELD*   N/A     18 N/A N/A CALM        N/A

_____LAKE CHAMPLAIN_____


CITY           SKY/WX    TMP DP  RH WIND       PRES   REMARKS
BURTON ISLAND*   N/A     21  19  93 NE1         N/A
COLCHESTER RF*   N/A     23  23 100 NE7         N/A

$$

NYZ007-026>031-035-052-083-211100-
_____NORTHERN NEW YORK_____


CITY           SKY/WX    TMP DP  RH WIND       PRES   REMARKS
PLATTSBURGH    CLOUDY    17  15  92 NW5       30.34F FOG
SARANAC LAKE   CLOUDY    15  32 100 CALM      30.19F
MASSENA        CLOUDY    13  10  88 E5        30.35F FOG
OGDENSBURG*    MOSUNNY   18  18 100 E5        30.31S
POTSDAM*       CLOUDY    16  14  93 E5        30.30F
WATERTOWN      CLOUDY    26  20  77 CALM      30.29F
FT DRUM        CLOUDY    24  17  76 S3        30.26F
ALBANY         FLURRIES  28  20  71 CALM      30.31S
GLENS FALLS    CLOUDY    24  19  81 E3        30.30S

$$
NHZ002-005-011-211100-
_____NEW HAMPSHIRE_____


CITY           SKY/WX    TMP DP  RH WIND       PRES   REMARKS
LEBANON        CLOUDY    24  18  77 CALM      30.29S
KEENE          CLOUDY    30  27  86 N3        30.28S
MT WASHINGTON  PTSUNNY   16  -4  41 SW3         N/A
PLYMOUTH       CLOUDY    24  24 100 CALM      30.30R
WHITEFIELD     CLOUDY    17  14  88 CALM      30.27S

$$

_____REGIONAL QUEBEC LOCATIONS_____


CITY           SKY/WX    TMP DP  RH WIND       PRES   REMARKS
MONTREAL       LGT SNOW  16  12  86 N7        30.36F FOG
QUEBEC CITY    FLURRIES  16  10  79 N3        30.37S
SHERBROOKE     FOG        7   5  92 SE3       30.30S VSB 5/8

_____REGIONAL ONTARIO LOCATIONS_____


CITY           SKY/WX    TMP DP  RH WIND       PRES   REMARKS
OTTAWA         CLOUDY    10   9  92 NE8       30.33F

______KEY______
VSB  - VISIBILITY IN MILES
WCI  - WIND CHILL INDEX
HX   - HEAT INDEX
$$
NNNN



USA.gov is the U.S. government's official web portal to all federal, state and local government web resources and services.